| time (UTC) | temp C | wind direction | speed KPH | gust KPH | rain 1hr cm | rain 24hr cm | rain mn cm | humidity % | barometer mb |
| 20260503021508 | 6 | 207 | 0.0 | 1.6 | 0.00 | 0.00 | 0.00 | 88 | 1014.7 |
| 20260503020003 | 6 | 207 | 0.0 | 0.0 | 0.00 | 0.00 | 0.00 | 87 | 1014.6 |
| 20260503014611 | 6 | 207 | 0.0 | 0.0 | 0.00 | 0.00 | 0.00 | 86 | 1014.4 |
| 20260503013057 | 7 | 207 | 0.0 | 0.0 | 0.00 | 0.00 | 0.00 | 83 | 1014.2 |
| 20260503011557 | 8 | 207 | 0.0 | 0.0 | 0.00 | 0.00 | 0.00 | 82 | 1013.9 |
| 20260503010051 | 8 | 207 | 0.0 | 0.0 | 0.00 | 0.00 | 0.00 | 81 | 1013.6 |
| 20260503004550 | 8 | 207 | 0.0 | 0.0 | 0.00 | 0.00 | 0.00 | 79 | 1013.6 |
| 20260503003049 | 8 | 207 | 0.0 | 0.0 | 0.00 | 0.00 | 0.00 | 76 | 1013.4 |
| 20260503001556 | 10 | 207 | 0.0 | 0.0 | 0.00 | 0.00 | 0.00 | 73 | 1013.4 |
| 20260503000046 | 11 | 207 | 0.0 | 0.0 | 0.00 | 0.00 | 0.00 | 70 | 1013.2 |
| 20260502234549 | 12 | 207 | 0.0 | 0.0 | 0.00 | 0.00 | 0.00 | 66 | 1013.0 |
| 20260502233046 | 13 | 203 | 0.0 | 0.0 | 0.00 | 0.00 | 0.00 | 63 | 1012.8 |
| 20260502231545 | 13 | 203 | 0.0 | 3.2 | 0.00 | 0.00 | 0.00 | 54 | 1012.6 |
| 20260502230045 | 15 | 210 | 0.0 | 4.8 | 0.00 | 0.00 | 0.00 | 53 | 1012.5 |
| 20260502224544 | 14 | 210 | 0.0 | 1.6 | 0.00 | 0.00 | 0.00 | 57 | 1012.4 |
| 20260502223043 | 13 | 210 | 0.0 | 3.2 | 0.00 | 0.00 | 0.00 | 57 | 1012.4 |
| 20260502221543 | 13 | 52 | 0.0 | 0.0 | 0.00 | 0.00 | 0.00 | 58 | 1012.3 |
| 20260502220043 | 14 | 52 | 0.0 | 1.6 | 0.00 | 0.00 | 0.00 | 57 | 1012.1 |
| 20260502214542 | 14 | 47 | 0.0 | 3.2 | 0.00 | 0.00 | 0.00 | 54 | 1012.1 |
| 20260502213042 | 14 | 74 | 0.0 | 3.2 | 0.00 | 0.00 | 0.00 | 55 | 1012.0 |
| 20260502211540 | 14 | 294 | 0.0 | 4.8 | 0.00 | 0.00 | 0.00 | 53 | 1012.0 |
| 20260502210039 | 13 | 11 | 0.0 | 3.2 | 0.00 | 0.00 | 0.00 | 55 | 1012.1 |
| 20260502204543 | 13 | 263 | 0.0 | 3.2 | 0.00 | 0.00 | 0.00 | 54 | 1012.1 |
| 20260502203036 | 13 | 290 | 0.0 | 6.4 | 0.00 | 0.00 | 0.00 | 55 | 1012.3 |
| 20260502201545 | 13 | 165 | 0.0 | 3.2 | 0.00 | 0.00 | 0.00 | 53 | 1012.5 |
| 20260502200036 | 13 | 44 | 0.0 | 4.8 | 0.00 | 0.00 | 0.00 | 56 | 1012.7 |
| 20260502194535 | 13 | 319 | 1.6 | 8.0 | 0.00 | 0.00 | 0.00 | 54 | 1012.7 |
| 20260502193034 | 13 | 22 | 0.0 | 4.8 | 0.00 | 0.00 | 0.00 | 54 | 1012.9 |
| 20260502191540 | 13 | 271 | 0.0 | 6.4 | 0.00 | 0.00 | 0.00 | 55 | 1013.0 |
| 20260502190038 | 14 | 326 | 0.0 | 6.4 | 0.00 | 0.00 | 0.00 | 52 | 1012.8 |
| 20260502184545 | 15 | 38 | 0.0 | 4.8 | 0.00 | 0.00 | 0.00 | 51 | 1012.7 |
| 20260502183040 | 15 | 28 | 0.0 | 4.8 | 0.00 | 0.00 | 0.00 | 53 | 1013.0 |
| 20260502181538 | 13 | 310 | 0.0 | 4.8 | 0.00 | 0.00 | 0.00 | 56 | 1013.1 |
| 20260502163024 | 13 | 95 | 1.6 | 6.4 | 0.00 | 0.00 | 0.00 | 56 | 1013.8 |
| 20260502161526 | 13 | 317 | 0.0 | 4.8 | 0.00 | 0.00 | 0.00 | 61 | 1013.9 |
| 20260502151520 | 13 | 37 | 0.0 | 4.8 | 0.00 | 0.00 | 0.00 | 56 | 1014.5 |
| 20260502130107 | 11 | 23 | 0.0 | 3.2 | 0.00 | 0.00 | 0.00 | 69 | 1013.8 |
| 20260502123055 | 11 | 134 | 0.0 | 1.6 | 0.00 | 0.00 | 0.00 | 73 | 1013.6 |
| 20260502121555 | 11 | 320 | 0.0 | 3.2 | 0.00 | 0.00 | 0.00 | 75 | 1013.8 |
| 20260502114551 | 10 | 55 | 0.0 | 3.2 | 0.00 | 0.00 | 0.00 | 82 | 1013.3 |
| 20260502113046 | 10 | 100 | 0.0 | 3.2 | 0.00 | 0.00 | 0.00 | 84 | 1013.1 |
| 20260502111544 | 10 | 344 | 0.0 | 0.0 | 0.00 | 0.00 | 0.00 | 86 | 1013.1 |
| 20260502110043 | 10 | 31 | 0.0 | 1.6 | 0.00 | 0.00 | 0.00 | 87 | 1013.0 |
| 20260502104542 | 10 | 32 | 0.0 | 1.6 | 0.00 | 0.00 | 0.00 | 89 | 1013.1 |
| 20260502103044 | 10 | 126 | 0.0 | 1.6 | 0.00 | 0.00 | 0.00 | 90 | 1013.0 |
| 20260502101550 | 10 | 99 | 0.0 | 3.2 | 0.00 | 0.00 | 0.00 | 93 | 1013.3 |
| 20260502091533 | 10 | 193 | 0.0 | 0.0 | 0.00 | 0.00 | 0.00 | 94 | 1013.7 |
| 20260502071524 | 10 | 193 | 0.0 | 0.0 | 0.00 | 0.00 | 0.00 | 94 | 1012.5 |
| 20260502070023 | 10 | 193 | 0.0 | 1.6 | 0.00 | 0.00 | 0.00 | 94 | 1012.4 |
| 20260502064519 | 9 | 193 | 0.0 | 1.6 | 0.00 | 0.00 | 0.00 | 94 | 1012.8 |
| 20260502063026 | 9 | 193 | 0.0 | 1.6 | 0.00 | 0.00 | 0.00 | 93 | 1012.7 |
| 20260502061516 | 9 | 193 | 0.0 | 0.0 | 0.00 | 0.00 | 0.00 | 93 | 1012.6 |
| 20260502060016 | 9 | 193 | 0.0 | 0.0 | 0.00 | 0.00 | 0.00 | 93 | 1012.5 |
| 20260502054515 | 9 | 193 | 0.0 | 0.0 | 0.00 | 0.00 | 0.00 | 93 | 1012.5 |
| 20260502053133 | 9 | 193 | 0.0 | 0.0 | 0.00 | 0.00 | 0.00 | 92 | 1012.7 |
| 20260502051512 | 9 | 193 | 0.0 | 0.0 | 0.00 | 0.00 | 0.00 | 92 | 1012.8 |
| 20260502050010 | 9 | 193 | 0.0 | 1.6 | 0.00 | 0.00 | 0.00 | 92 | 1012.9 |
| 20260502044509 | 9 | 193 | 0.0 | 1.6 | 0.00 | 0.00 | 0.00 | 91 | 1013.1 |
| 20260502043007 | 9 | 193 | 0.0 | 0.0 | 0.00 | 0.00 | 0.00 | 91 | 1013.1 |
| 20260502041507 | 9 | 193 | 0.0 | 0.0 | 0.00 | 0.00 | 0.00 | 91 | 1013.2 |
| 20260502040003 | 10 | 193 | 0.0 | 1.6 | 0.00 | 0.00 | 0.00 | 90 | 1013.1 |
| 20260502034505 | 10 | 193 | 0.0 | 0.0 | 0.00 | 0.00 | 0.00 | 89 | 1013.4 |
| 20260502033109 | 10 | 193 | 0.0 | 0.0 | 0.00 | 0.00 | 0.00 | 89 | 1013.4 |
| 20260502031600 | 10 | 193 | 0.0 | 0.0 | 0.00 | 0.00 | 0.00 | 88 | 1013.6 |
| 20260502030100 | 10 | 193 | 0.0 | 3.2 | 0.00 | 0.00 | 0.00 | 88 | 1013.4 |
| 20260502024559 | 10 | 193 | 0.0 | 1.6 | 0.00 | 0.00 | 0.00 | 88 | 1013.5 |
| 20260502023059 | 10 | 193 | 0.0 | 0.0 | 0.00 | 0.00 | 0.00 | 86 | 1013.7 |